JAI155 VOMD-VOBL

Flight info

Callsign JAI155
Flight time N/A
Altitude 29000
Route VOMD/27 ARUMO J15 ADKAL ADKAL7E
Aircraft B738/M-SDE2E3FGHIRWXY/LB1

Departure

Time 2026-04-23 08:30
Airport Madurai Airport (VOMD)

Arrival

Time N/A
Airport Kempegowda International Airport Bengaluru (VOBL)
Time Latitude Longitude Altitude Speed Heading
2026-04-23 08:28 9.83523 78.10034 440 ft 5 kts 255°
2026-04-23 08:28 9.83515 78.10000 440 ft 4 kts 261°
2026-04-23 08:29 9.83512 78.09972 441 ft 2 kts 265°
2026-04-23 08:29 9.83512 78.09968 441 ft 0 kts 265°
2026-04-23 08:29 9.83512 78.09967 441 ft 1 kts 265°
2026-04-23 08:29 9.83498 78.09798 444 ft 59 kts 264°
2026-04-23 08:30 9.83457 78.09166 456 ft 123 kts 267°
2026-04-23 08:30 9.83379 78.08116 486 ft 173 kts 262°
2026-04-23 08:30 9.83302 78.06850 1016 ft 181 kts 266°
2026-04-23 08:30 9.83245 78.05624 1685 ft 183 kts 266°
2026-04-23 08:31 9.83163 78.04294 2111 ft 197 kts 266°
2026-04-23 08:31 9.83058 78.02879 2428 ft 214 kts 265°
2026-04-23 08:31 9.82926 78.01329 2792 ft 229 kts 265°
2026-04-23 08:31 9.82782 77.99716 3155 ft 244 kts 265°
2026-04-23 08:32 9.82620 77.97991 3586 ft 255 kts 265°
2026-04-23 08:32 9.82448 77.96184 4022 ft 267 kts 265°
2026-04-23 08:32 9.82268 77.94301 4626 ft 273 kts 265°
2026-04-23 08:32 9.82065 77.92448 4802 ft 268 kts 265°
2026-04-23 08:33 9.82032 77.92131 4811 ft 265 kts 265°
2026-04-23 08:33 9.81887 77.90642 4818 ft 269 kts 266°
2026-04-23 08:33 9.81718 77.88731 4920 ft 282 kts 265°
2026-04-23 08:33 9.81572 77.86743 4992 ft 280 kts 274°
2026-04-23 08:34 9.82114 77.84907 5026 ft 279 kts 307°
2026-04-23 08:34 9.83563 77.83697 5115 ft 279 kts 342°
2026-04-23 08:34 9.85405 77.83515 5334 ft 274 kts 14°
2026-04-23 08:34 9.87164 77.84193 5654 ft 266 kts 29°
2026-04-23 08:35 9.88808 77.85075 5760 ft 269 kts 28°
2026-04-23 08:35 9.90536 77.85819 5858 ft 272 kts 20°
2026-04-23 08:35 9.92345 77.86361 6046 ft 284 kts 15°
2026-04-23 08:35 9.94223 77.86773 7042 ft 276 kts 13°
2026-04-23 08:36 9.96093 77.87152 7879 ft 276 kts 13°
2026-04-23 08:36 9.97930 77.87534 8596 ft 280 kts 14°
2026-04-23 08:36 9.99793 77.87934 9352 ft 284 kts 14°
2026-04-23 08:36 10.01633 77.88333 10140 ft 286 kts 14°
2026-04-23 08:37 10.03645 77.88773 10647 ft 302 kts 14°
2026-04-23 08:37 10.05704 77.89220 11189 ft 315 kts 14°
2026-04-23 08:37 10.07785 77.89668 11640 ft 329 kts 14°